User: anonymous   Login
Location: Cow Canyon Saddle
(34.2291°N, 117.6698°W)
Time: 16:32:44
(UTC-08:00)
Language:

Lacrosse 5 - Orbit

View from above orbital plane
View from above orbital plane
View from above satellite
View from above satellite

Ground track
Ground track

The orbit data is extracted from the following two-line orbital elements,

1 28646U 05016A   15060.76820283 0.00000000  00000-0  00000-0 0    09
2 28646  57.0110  15.2059 0008000 131.1839 228.8161 14.52027041    02
Epoch (UTC): 01 March 2015 18:26:12
Eccentricity: 0.0008000
inclination: 57.0110°
perigee height: 713 km
apogee height: 725 km
right ascension of ascending node: 15.2059°
argument of perigee: 131.1839°
revolutions per day: 14.52027041
mean anomaly at epoch: 228.8161°
orbit number at epoch: 0

The dashed part of the orbit path shows where the satellite is in the earth's shadow,  

DLR